NIMIQ 6 1 38342U 12026A 21061.84910727 -.00000182 00000-0 00000-0 0 9991 2 38342 0.0536 294.0691 0002149 49.6736 31.6727 1.00271181 31043 BREEZE-M R/B 1 38343U 12026B 21060.44767565 -.00000079 00000-0 00000-0 0 9992 2 38343 11.6546 295.0089 4147311 110.7052 297.7079 1.76699040 56392 BREEZE-M DEB [TANK] 1 38344U 12026C 21061.62495366 .00000923 00000-0 47780-3 0 9997 2 38344 49.2225 158.7065 6274668 172.7060 204.7188 3.58861618111023 BREEZE-M DEB 1 41317U 12026D 21061.14909894 -.00000073 00000-0 00000-0 0 9992 2 41317 11.6308 291.1871 4127312 119.3961 287.8143 1.79269101 33922 BREEZE-M DEB 1 41318U 12026E 21055.03123085 -.00000058 00000-0 00000-0 0 9997 2 41318 11.8447 298.6544 4125095 105.4672 302.6719 1.76518081 32957 BREEZE-M DEB 1 41319U 12026F 21053.71603626 -.00000057 00000-0 00000+0 0 9993 2 41319 11.8588 298.7955 4118843 105.3678 302.6989 1.76694706 33329 BREEZE-M DEB 1 41320U 12026G 21058.46033108 -.00000074 00000-0 00000-0 0 9994 2 41320 11.7716 297.9052 4140490 105.9941 302.3260 1.76039858 33346 BREEZE-M DEB 1 41321U 12026H 21061.35210173 -.00000081 00000-0 00000-0 0 9994 2 41321 11.8359 297.2786 4133061 108.4984 299.7773 1.77036633 33504 BREEZE-M DEB 1 41323U 12026K 21061.40476224 -.00000077 00000-0 00000-0 0 9998 2 41323 11.5226 291.4042 4142892 116.6517 291.2031 1.77767635 33510 BREEZE-M DEB 1 41324U 12026L 21060.95328367 -.00000072 00000-0 00000+0 0 9996 2 41324 11.7244 291.7388 4128540 119.7637 287.3924 1.79763022 33593 BREEZE-M DEB 1 43401U 12026N 21060.89491637 -.00000087 00000-0 00000-0 0 9995 2 43401 11.4341 298.0942 4116423 103.8259 42.3623 1.75795886 54859